Regional Weather Roundup
Issued by NWS

Home | Current Version | Previous Version | Text Only | Print | Product List | Glossary Off
Versions: 1 2 3 4 5 6 7 8 9 10 11 12 13 14 15 16 17 18 19 20 21 22 23 24 25 26 27 28 29 30 31 32 33 34 35 36 37 38 39 40 41 42 43 44 45 46 47 48 49 50

000
ASUS43 KMKX 192211
RWRWI

WISCONSIN REGIONAL WEATHER ROUNDUP
NATIONAL WEATHER SERVICE MILWAUKEE/SULLIVAN WI
500 PM CDT FRI SEP 19 2014

NOTE: "FAIR" INDICATES FEW OR NO CLOUDS BELOW 12,000 FEET WITH NO
SIGNIFICANT WEATHER AND/OR OBSTRUCTIONS TO VISIBILITY.

WIZ001-002-006>008-014>016-023>028-192300-
NORTHWEST WISCONSIN

CITY           SKY/WX    TMP DP  RH WIND       PRES   REMARKS
SUPERIOR ARPT  CLOUDY    63  61  94 SW9       29.66R
ASHLAND        CLOUDY    66  57  72 S13G18    29.67F
HAYWARD        CLOUDY    66  58  75 S7        29.71F
SIREN          CLOUDY    66  60  81 S3        29.70S
RICE LAKE      CLOUDY    70  58  66 S10       29.71F
LADYSMITH      CLOUDY    68  57  68 S9G16     29.76F
EAU CLAIRE     PTSUNNY   74  58  57 S16G22    29.73S
MENOMONIE      CLOUDY    74  58  57 S16       29.73S
NEW RICHMOND   CLOUDY    74  61  62 S8        29.69S
OSCEOLA        CLOUDY    70  63  77 NW5       29.72R
$$

WIZ003>005-009-010-017-018-192300-
NORTH CENTRAL WISCONSIN

CITY           SKY/WX    TMP DP  RH WIND       PRES   REMARKS
WOODRUFF       CLOUDY    67  54  63 SW14G22   29.76R
RHINELANDER    PTSUNNY   66  52  60 SW10G29   29.77F
EAGLE RIVER    PTSUNNY   66  50  55 SW13G20   29.75S
LAND O LAKES   PTSUNNY   66  51  57 SW8       29.75R
PHILLIPS       CLOUDY    65  55  68 SW8       29.77R
TOMAHAWK       PTSUNNY   66  53  64 S7        29.78R
MEDFORD        PTSUNNY   68  54  61 S15       29.78R
MERRILL        MOSUNNY   68  54  60 S20G25    29.77F
$$

WIZ029-030-035-036-043>047-192300-
CENTRAL WISCONSIN

CITY           SKY/WX    TMP DP  RH WIND       PRES   REMARKS
WAUSAU         MOSUNNY   69  53  56 S22       29.77F
MOSINEE        MOSUNNY   70  54  56 S24G32    29.80F
MARSHFIELD     MOSUNNY   71  54  54 S25G36    29.77F
STEVENS POINT  MOSUNNY   70  51  50 S23G31    29.81F
WAUPACA        SUNNY     73  52  46 S16G29    29.84F
WAUTOMA        MOSUNNY   74  53  47 S12G24    29.86F
WISC RAPIDS    MOSUNNY   73  53  49 S16G36    29.82F
CAMP DOUGLAS   PTSUNNY   73  55  53 S21G31    29.82F
$$

WIZ011>013-019>022-031-037>040-048>050-192300-
NORTHEAST WISCONSIN

CITY           SKY/WX    TMP DP  RH WIND       PRES   REMARKS
ANTIGO         MOSUNNY   67  53  61 S28G36    29.79F
STURGEON BAY   PTSUNNY   61  54  77 S22G33    29.89R
GREEN BAY      MOSUNNY   72  51  47 S16G28    29.87F
MANITOWOC      MOSUNNY   63  56  78 S23G32    29.92F
APPLETON       PTSUNNY   72  48  43 S22       29.89F
CLINTONVILLE   MOSUNNY   72  50  46 S17G31    29.84F
OSHKOSH        MOSUNNY   71  50  47 S23G30    29.89F
$$

WIZ032>034-041-042-053>061-192300-
SOUTHWEST WISCONSIN

CITY           SKY/WX    TMP DP  RH WIND       PRES   REMARKS
LA CROSSE      SUNNY     76  56  49 S31G37    29.75F
SPARTA         SUNNY     74  52  45 S18G29    29.81F
VIROQUA        FAIR      72  54  51 S21G31    29.85F
BOSCOBEL       SUNNY     76  53  44 S15G23    29.88F
PRAIRIE DU CHI SUNNY     75  52  45 S10G21    29.86F
PLATTEVILLE    FAIR      73  52  47 S18G26    29.93F
$$

WIZ056-057-062-063-064-067-068-192300-
SOUTH CENTRAL WISCONSIN

CITY           SKY/WX    TMP DP  RH WIND       PRES   REMARKS
BARABOO/DELLS  SUNNY     73  50  43 S15G25    29.88F
LONE ROCK      MOSUNNY   77  53  43 S16G29    29.89F
WATERTOWN      MOSUNNY   72  50  44 S18G24    29.94F
MADISON        PTSUNNY   73  50  44 S21G29    29.92F
MIDDLETON      FAIR      74  48  39 S15G26    29.92F
MONROE         MOSUNNY   72  50  46 S21G30    29.95F
JANESVILLE     SUNNY     73  46  38 S16G22    29.96F
$$

WIZ051-052-058>065-066-070>072-192300-
SOUTHEAST WISCONSIN

CITY           SKY/WX    TMP DP  RH WIND       PRES   REMARKS
MILWAUKEE      PTSUNNY   70  51  51 S13       29.97F
WAUKESHA       SUNNY     70  48  46 S21       29.98
MILWAUKEE/TIMM SUNNY     72  45  37 S16G25    29.97F
RACINE         SUNNY     67  52  58 S16G23    30.00F
BURLINGTON     SUNNY     71  48  43 S9G17     29.98S
KENOSHA        SUNNY     72  47  40 S16G24    29.99F
FOND DU LAC    MOSUNNY   72  49  44 S22       29.91F
SHEBOYGAN      MOSUNNY   66  52  60 S17G31    29.94F
WEST BEND      MOSUNNY   70  45  40 S17G26    29.94F
JUNEAU         MOSUNNY   71  48  44 S18G30    29.95S
$$

LSZ147-162-192300-
LAKE SUPERIOR

STATION/POSITION TIME  TEMP    WIND        PRES    WAVE
                       AIR SEA DIR/SP/G            HT/PER
                 (UTC) (F)     (DEG/KT/KT) (MB)    (FT/S)
W MID LAKE BUOY  2150   53 47  200/  8/  8 1003.8F   2/ 5
DEVILS ISLAND    2200   62     200/ 11/ 14 1003.5F
PORT WING        2140   64     180/  9/ 13 1004.1F
SAXON HARBOR     2100   68     230/  1/  6 1006.1R
$$

LMZ867-665-643>646-192300-
LAKE MICHIGAN

STATION/POSITION TIME  TEMP    WIND        PRES    WAVE
                       AIR SEA DIR/SP/G            HT/PER
                 (UTC) (F)     (DEG/KT/KT) (MB)    (FT/S)
N MID LAKE BUOY  2050   60 58  190/ 25/ 29 1012.4F   6/ 7
NORTHPORT PIER   2121   60     170/ 13     1011.2F
KEWAUNEE LAKESHO 2100   58     180/ 18/ 21 1012.7F
SHEBOYGAN LAKESH 2200   59 56  180/ 21/ 23 1014.0F
PORT WASHINGTON  2140   64     190/ 12/ 18 1014.9F
ATWATER BUOY     2200   62     160/ 19/ 25 1015.7F
MILWAUKEE LAKESH 2100   62     150/ 21/ 24   N/A
S MID LAKE BUOY  2150   65 65  160/ 14/ 16 1016.4F   3/ 5
KENOSHA   LAKESH 2200   65     180/ 15/ 19 1014.9F
$$

TC  - TEMPERATURE IN CELSIUS
VSB - VISIBILITY IN STATUTE MILES
WCI - WIND CHILL INDEX
HX  - HEAT INDEX




USA.gov is the U.S. government's official web portal to all federal, state and local government web resources and services.